User: anonymous   Login
Location: Unspecified
(0.0000°N, 0.0000°E)
Time: 23:55:02
(UTC+00:00)
Language:

Chandra X-Ray Observatory - Orbit

View from above orbital plane
View from above orbital plane
View from above satellite
View from above satellite

Ground track
Ground track

The orbit data is extracted from the following two-line orbital elements,

1 25867U 99040B   22027.89869729  .00000461  00000-0  00000-0 0  9992
2 25867  49.2257 244.3056 8644010 229.5559   1.0148  0.37804870 11264
Epoch (UTC): 27 January 2022 21:34:07
Eccentricity: 0.8644010
inclination: 49.2257°
perigee height: 4577 km
apogee height: 144249 km
right ascension of ascending node: 244.3056°
argument of perigee: 229.5559°
revolutions per day: 0.37804870
mean anomaly at epoch: 1.0148°
orbit number at epoch: 1126

The dashed part of the orbit path shows where the satellite is in the earth's shadow,  

DLR